Flag Weather past 2 weeks in Almere, Netherlands

Now
45 °F

Fog.


Feels Like: 40 °F
Forecast: 38 / 46 °F
Wind: 9 mph from East

Location: Amsterdam Schiphol Airport

Current Time: Nov 27, 2014 at 9:11:41 PM

Latest Report: Nov 27, 2014 at 8:25 PM


Visibility: 3 mi

Pressure: 29.71 "Hg

Humidity: 100%

Dew point: 45 °F

Location of AlmereLocation

Historic Weather in Almere — Graph

°F

Almere temperature yesterday

Maximum temperature yesterday: 43 °F (at 12:25 PM)
Minimum temperature yesterday: 37 °F (at 5:55 AM)
Average temperature yesterday: 41 °F

Past Weeks' High & Low Weather Summary

 TemperatureHumidityPressure
High55 °F (Nov 13, 1:25 PM)100% (Nov 12, 7:25 PM)30.33 "Hg (Nov 12, 7:25 PM)
Low34 °F (Nov 25, 5:55 AM)67% (Nov 24, 1:25 PM)29.47 "Hg (Nov 16, 3:55 PM)
Average46 °F91%29.93 "Hg
* Reported Nov 12 7:25 PM — Nov 27 7:55 PM, Almere, Weather by CustomWeather, © 2014

Note: Actual official high and low records may vary slightly from our data, if they occured in-between our weather recording intervals... More about our weather records

Advertising

Almere weather history for previous 24 hours

 ConditionsComfort  
Time TempWeatherWind HumidityBarometerVisibility
7:55 PM
Nov 27
45 °FDrizzle. Mostly cloudy.9 mph100%29.71 "Hg3 mi
7:25 PM46 °FPassing clouds.9 mph93%29.71 "Hg4 mi
6:55 PM46 °FPassing clouds.9 mph93%29.71 "Hg4 mi
6:25 PM46 °FPartly cloudy.9 mph87%29.71 "Hg5 mi
5:55 PM46 °FPassing clouds.9 mph87%29.71 "Hg5 mi
5:25 PM46 °FPassing clouds.9 mph87%29.71 "Hg5 mi
4:55 PM46 °FPassing clouds.12 mph87%29.71 "Hg6 mi
4:25 PM46 °FPassing clouds.9 mph87%29.71 "HgN/A
3:55 PM48 °FPartly sunny.10 mph82%29.71 "HgN/A
3:25 PM48 °FPartly sunny.8 mph82%29.71 "HgN/A
2:55 PM48 °FPartly sunny.8 mph82%29.71 "HgN/A
2:25 PM48 °FPartly sunny.9 mph82%29.71 "HgN/A
1:55 PM48 °FPartly sunny.7 mph87%29.71 "HgN/A
1:25 PM48 °FBroken clouds.9 mph87%29.71 "HgN/A
12:55 PM48 °FBroken clouds.8 mph87%29.74 "HgN/A
12:25 PM48 °FBroken clouds.9 mph87%29.74 "HgN/A
11:55 AM46 °FBroken clouds.8 mph87%29.74 "HgN/A
11:25 AM46 °FBroken clouds.10 mph93%29.74 "HgN/A
10:55 AM46 °FPartly sunny.9 mph87%29.74 "HgN/A
10:25 AM46 °FPartly sunny.12 mph87%29.74 "Hg5 mi
9:55 AM45 °FMostly cloudy.10 mph93%29.74 "Hg5 mi
9:25 AM45 °FMostly cloudy.8 mph93%29.74 "Hg5 mi
8:55 AM45 °FDrizzle. Broken clouds.8 mph93%29.74 "Hg4 mi
8:25 AM45 °FBroken clouds.9 mph93%29.74 "Hg4 mi
7:55 AM45 °FFog.9 mph93%29.74 "Hg3 mi
7:25 AM45 °FPartly cloudy.10 mph93%29.74 "Hg4 mi
6:55 AM45 °FPassing clouds.10 mph93%29.74 "Hg4 mi
6:25 AM45 °FFog.9 mph93%29.74 "Hg3 mi
5:55 AM45 °FFog.10 mph93%29.77 "Hg2 mi
5:25 AM45 °FFog.9 mph93%29.77 "Hg2 mi
4:55 AM45 °FFog.9 mph93%29.77 "Hg2 mi
4:25 AM45 °FFog.9 mph93%29.77 "Hg2 mi
3:55 AM45 °FFog.10 mph93%29.77 "Hg1 mi
3:25 AM43 °FDrizzle. Fog.10 mph100%29.80 "Hg2 mi
2:55 AM43 °FDrizzle. Fog.9 mph100%29.80 "Hg1 mi
2:25 AM43 °FFog.9 mph100%29.80 "Hg2 mi
1:55 AM43 °FDrizzle. Fog.9 mph100%29.80 "Hg1 mi
1:25 AM43 °FDrizzle. Fog.9 mph100%29.80 "Hg1 mi
12:55 AM43 °FDrizzle. Fog.10 mph100%29.83 "Hg1 mi
12:25 AM43 °FDrizzle. Mostly cloudy.10 mph100%29.83 "Hg1 mi
11:55 PM
Nov 26
43 °FDrizzle. Mostly cloudy.10 mph93%29.83 "Hg1 mi
11:25 PM43 °FDrizzle. Mostly cloudy.10 mph93%29.83 "Hg1 mi
10:55 PM43 °FFog.10 mph93%29.83 "Hg1 mi
10:25 PM43 °FFog.12 mph93%29.86 "Hg2 mi
9:55 PM43 °FDrizzle. Mostly cloudy.12 mph93%29.86 "Hg3 mi
9:25 PM43 °FDrizzle. Overcast.10 mph93%29.86 "Hg3 mi
Weather by CustomWeather, © 2014

See weather overviewHow to use our weather pages